Weather History for St. Joseph, MO

Change the Weather History Date:

Monday, January 6, 2014

  Actual Average Record
Temperature  
Mean Temperature -3 °F 26 °F  
Max Temperature 3 °F 36 °F 63 °F (1939)
Min Temperature -10 °F 17 °F -20 °F (1971)
Degree Days  
Heating Degree Days 68 38  
Month to date heating degree days 332 231  
Since 1 July heating degree days 2760 2444  
Cooling Degree Days 0 0  
Month to date cooling degree days 0 0  
Year to date cooling degree days 0 0  
Moisture  
Dew Point -15 °F    
Average Humidity 67    
Maximum Humidity 82    
Minimum Humidity 51    
Precipitation  
Precipitation 0.00 in 0.02 in 0.36 in (2010)
Month to date precipitation 0.01 0.12  
Year to date precipitation 0.01 0.12  
Sea Level Pressure  
Sea Level Pressure 30.57 in    
Wind  
Wind Speed 9 mph (WNW)    
Max Wind Speed 25 mph    
Max Gust Speed 30 mph    
Visibility 10 miles    
Events      
T = Trace of Precipitation, MM = Missing Value Source: NWS Daily Summary

Daily Weather History Graph

Daily Weather History Graph

Search for Another Location

Airport:

Trip Planner

Search our weather history database for the weather conditions in past years. The results will help you decide how hot, cold, wet, or windy it might be!

Date:

Astronomy

Jan. 06, 2014 Rise Set
Actual Time 7:41 AM CST 5:10 PM CST
Civil Twilight 7:10 AM CST 5:40 PM CST
Nautical Twilight 6:37 AM CST 6:14 PM CST
Astronomical Twilight 6:04 AM CST 6:46 PM CST
Moon 10:57 AM CST (1/6) 11:43 PM CST (1/6)
Length of Visible Light 10h 29m
Length of Day
9h 29m
Waxing Crescent, 35% of the Moon is Illuminated
Jan 6
Waxing Crescent
Jan 7
First Quarter
Jan 15
Full
Jan 23
Last Quarter
Jan 30
New

Hourly Weather History & Observations

Time (CST) Temp. Windchill Dew Point Humidity Pressure Visibility Wind Dir Wind Speed Gust Speed Precip Events Conditions
12:53 AM -5.1 °F -30.0 °F -18.9 °F 51% 30.60 in 10.0 mi NNW 23.0 mph 29.9 mph N/A   Clear
1:53 AM -6.0 °F -26.3 °F -18.9 °F 54% 30.60 in 10.0 mi NNW 13.8 mph 23.0 mph N/A   Clear
2:53 AM -9.0 °F -23.8 °F -20.0 °F 59% 30.61 in 10.0 mi NW 6.9 mph - N/A   Clear
3:53 AM -9.0 °F -25.2 °F -20.0 °F 59% 30.61 in 10.0 mi West 8.1 mph - N/A   Clear
4:53 AM -9.0 °F -23.8 °F -18.9 °F 62% 30.60 in 10.0 mi WSW 6.9 mph - N/A   Clear
5:53 AM -9.0 °F -23.8 °F -20.0 °F 59% 30.59 in 10.0 mi WNW 6.9 mph - N/A   Clear
6:53 AM -7.1 °F -29.1 °F -18.9 °F 56% 30.60 in 10.0 mi NW 16.1 mph - N/A   Clear
7:53 AM -9.0 °F -22.3 °F -18.9 °F 62% 30.61 in 10.0 mi WNW 5.8 mph - N/A   Clear
8:53 AM -6.0 °F -24.6 °F -18.0 °F 56% 30.63 in 10.0 mi WNW 11.5 mph - N/A   Clear
9:53 AM -5.1 °F -27.2 °F -17.0 °F 57% 30.63 in 8.0 mi NW 17.3 mph 23.0 mph N/A   Clear
10:53 AM -2.9 °F -23.1 °F -16.1 °F 54% 30.64 in 10.0 mi NW 15.0 mph - N/A   Partly Cloudy
11:53 AM -0.9 °F -22.4 °F -15.0 °F 52% 30.61 in 10.0 mi WNW 18.4 mph - N/A   Partly Cloudy
12:29 PM -0.9 °F -21.9 °F -14.1 °F 54% 30.53 in 10.0 mi NNW 17.3 mph - N/A   Mostly Cloudy
12:53 PM -0.0 °F -17.1 °F -13.0 °F 54% 30.59 in 10.0 mi NW 11.5 mph - N/A   Overcast
1:53 PM 1.9 °F -14.7 °F -9.9 °F 58% 30.57 in 10.0 mi NNW 11.5 mph - N/A   Overcast
2:53 PM 3.0 °F -12.5 °F -11.0 °F 52% 30.56 in 10.0 mi WNW 10.4 mph - N/A   Partly Cloudy
3:53 PM 3.0 °F -13.3 °F -11.0 °F 52% 30.57 in 10.0 mi West 11.5 mph - N/A   Partly Cloudy
4:53 PM 1.9 °F -10.6 °F -11.0 °F 55% 30.55 in 10.0 mi West 6.9 mph - N/A   Clear
5:53 PM 1.0 °F -6.7 °F -11.0 °F 57% 30.53 in 10.0 mi SW 3.5 mph - N/A   Clear
6:53 PM -0.9 °F -11.0 °F -9.9 °F 66% 30.53 in 10.0 mi SSW 4.6 mph - N/A   Clear
7:53 PM -5.1 °F - -11.0 °F 76% 30.54 in 10.0 mi Calm Calm - N/A   Clear
8:53 PM -6.0 °F -14.7 °F -11.0 °F 79% 30.52 in 10.0 mi SSE 3.5 mph - N/A   Clear
9:53 PM -5.1 °F -13.6 °F -9.9 °F 80% 30.49 in 10.0 mi SSW 3.5 mph - N/A   Clear
10:53 PM -6.0 °F -14.7 °F -11.0 °F 79% 30.49 in 10.0 mi SSE 3.5 mph - N/A   Clear
11:53 PM -5.1 °F -15.8 °F -11.0 °F 76% 30.46 in 10.0 mi SSW 4.6 mph - N/A   Clear